AO-07 1 07530U 74089B 22034.84518617 -.00000047 00000-0 -98129-5 0 9991 2 07530 101.8888 14.3772 0012053 299.0066 176.3781 12.53652672160726 UO-11 1 14781U 84021B 22034.70295709 .00000608 00000-0 80069-4 0 9997 2 14781 97.6075 28.3348 0009543 48.3456 311.8574 14.83431468 20212 LO-19 1 20442U 90005G 22034.67223904 .00000072 00000-0 43033-4 0 9996 2 20442 98.7757 357.6298 0011346 196.7783 163.3026 14.33019911673945 HUBBLE 1 20580U 90037B 22034.56086428 .00001884 00000-0 10214-3 0 9996 2 20580 28.4711 335.5845 0002641 37.2069 128.6910 15.09996056545958 MET-2/21 1 22782U 93055A 22034.68518694 .00000061 00000-0 41249-4 0 9992 2 22782 82.5498 120.4180 0022277 6.4544 146.8541 13.83844640435505 AO-27 1 22825U 93061C 22034.53745395 .00000041 00000-0 33776-4 0 9995 2 22825 98.9025 62.6385 0009499 83.3208 276.9054 14.30142702479017 IO-26 1 22826U 93061D 22034.52285656 .00000048 00000-0 36173-4 0 9995 2 22826 98.8967 62.5123 0009961 71.5260 288.7003 14.30484704479265 FO-29 1 24278U 96046B 22034.52156586 -.00000031 00000-0 73682-5 0 9993 2 24278 98.5354 76.5237 0349278 270.7470 85.3671 13.53109900257497 NOAA-15 1 25338U 98030A 22034.76382697 .00000078 00000-0 51177-4 0 9990 2 25338 98.6603 65.9438 0009784 332.3212 27.7446 14.26087096233960 GO-32 1 25397U 98043D 22034.62132649 .00000027 00000-0 31550-4 0 9991 2 25397 98.8016 344.8624 0002148 113.5796 246.5607 14.23730415224387 ISS 1 25544U 98067A 22034.72187436 .00005633 00000-0 10750-3 0 9992 2 25544 51.6450 277.5435 0006750 94.3504 8.7010 15.49753033324486 NO-44 1 26931U 01043C 22034.71882732 .00000056 00000-0 53270-4 0 9990 2 26931 67.0513 43.5735 0007195 279.8905 80.1384 14.30659222 62279 SO-50 1 27607U 02058C 22034.57538613 .00000699 00000-0 11821-3 0 9996 2 27607 64.5564 351.5010 0068403 321.3659 38.2559 14.75898488 28610 CO-55 1 27844U 03031E 22034.49379096 .00000139 00000-0 82112-4 0 9991 2 27844 98.6808 44.1941 0010735 126.6309 233.5857 14.22376409964822 CO-57 1 27848U 03031J 22034.76740642 .00000128 00000-0 77638-4 0 9999 2 27848 98.6857 45.0064 0010472 138.6294 221.5679 14.21944175964683 RS-22 1 27939U 03042A 22034.80177086 .00000579 00000-0 11178-3 0 9999 2 27939 98.1689 175.7528 0011556 269.3853 90.6040 14.67122314981448 NOAA-18 1 28654U 05018A 22034.70075946 .00000162 00000-0 11157-3 0 9995 2 28654 98.9661 105.1601 0013934 353.3778 6.7208 14.12684068861093 CO-58 1 28895U 05043F 22034.85092909 .00000736 00000-0 14907-3 0 9997 2 28895 98.0852 168.4865 0016399 197.7844 162.2786 14.64076766867866 Falconsat-3 1 30776U 07006E 22034.43925648 .00015766 00000-0 32633-3 0 9993 2 30776 35.4341 52.0475 0003930 226.1593 133.8812 15.44916271828791 CO-65 1 32785U 08021C 22034.52608840 .00001449 00000-0 15944-3 0 9994 2 32785 97.6409 9.8105 0011922 323.8025 36.2385 14.89036634746551 AAUSAT2 1 32788U 08021F 22034.93928749 .00002995 00000-0 26985-3 0 9999 2 32788 97.5238 25.1942 0010455 205.1450 154.9264 14.96263925748466 DO-64 1 32789U 08021G 22034.34322611 .00006371 00000-0 38830-3 0 9995 2 32789 97.3547 65.7162 0012920 71.3506 288.9126 15.10628960751668 CO-66 1 32791U 08021J 22034.46719366 .00001618 00000-0 16539-3 0 9999 2 32791 97.5972 15.4060 0011410 278.4449 81.5477 14.91857556747218 RS-30 1 32953U 08025A 22034.93835922 .00000021 00000-0 80971-4 0 9991 2 32953 82.5003 266.9555 0018888 190.4495 169.6192 12.43107010621748 PRISM 1 33493U 09002B 22034.71567069 .00003387 00000-0 28856-3 0 9998 2 33493 98.2185 13.9002 0013572 241.5165 118.4689 14.98445088708940 NOAA-19 1 33591U 09005A 22034.89958157 .00000072 00000-0 63909-4 0 9998 2 33591 99.1651 66.1224 0013645 199.6423 160.4224 14.12527134669334 SRMSAT 1 37841U 11058D 22034.52796579 .00000331 00000-0 36713-4 0 9990 2 37841 19.9735 344.4298 0011666 312.9030 205.5168 14.10723382532302 HRBE 1 37855U 11061F 22034.58415521 .00007935 00000-0 37051-3 0 9992 2 37855 101.7163 83.3904 0161693 102.5087 259.4269 15.09453365561027 RS-40 1 38735U 12041C 22034.83793318 .00000013 00000-0 26349-4 0 9999 2 38735 82.4801 348.8135 0016473 306.2112 53.7449 12.42583883431924 ZACUBE-1 1 39417U 13066B 22034.41765751 .00000936 00000-0 12141-3 0 9997 2 39417 97.6204 12.1510 0059596 123.1939 237.5009 14.81808227443273 Delfi-N3xt 1 39428U 13066N 22034.79745687 .00002880 00000-0 45520-3 0 9993 2 39428 97.8051 335.0656 0118771 345.7613 14.0255 14.68442446438915 GOMX-1 1 39430U 13066Q 22034.95039524 .00000579 00000-0 11196-3 0 9995 2 39430 97.8163 309.7569 0151357 105.4754 256.3232 14.59830615436819 LO-74 1 39440U 13066AA 22034.63478013 .00000972 00000-0 13981-3 0 9992 2 39440 97.7090 358.0087 0078718 204.6590 155.0850 14.76528575440532 AO-73 1 39444U 13066AE 22034.66163544 .00001503 00000-0 18667-3 0 9996 2 39444 97.6093 14.7762 0058707 111.6838 249.0642 14.82776889441693 SPROUT 1 39770U 14029E 22034.74741050 .00003439 00000-0 36860-3 0 9996 2 39770 97.9296 151.1667 0008838 160.5691 199.5914 14.89295740417753 DTUSAT-2 1 40030U 14033W 22034.50364666 .00001589 00000-0 17324-3 0 9998 2 40030 97.9304 326.8729 0012777 129.9856 230.2485 14.89338374414218 EO-80 1 40032U 14033Y 22034.74168629 .00001573 00000-0 17172-3 0 9991 2 40032 97.9311 327.1222 0012736 130.0854 230.1482 14.89303134413712 HODOYOSHI-1 1 40299U 14070B 22034.85623698 .00003383 00000-0 13596-3 0 9998 2 40299 97.2623 106.9444 0010884 247.8363 223.7506 15.25547557402688 FIREBIRD FU3 1 40377U 15003B 22034.52458227 .00010668 00000-0 35692-3 0 9995 2 40377 99.1125 229.9992 0110858 117.0629 244.1967 15.25429176387970 FIREBIRD FU4 1 40378U 15003C 22034.49195368 .00011648 00000-0 38842-3 0 9995 2 40378 99.1128 230.1420 0110794 116.8916 244.3691 15.25503704387975 GRIFEX 1 40379U 15003D 22034.75951449 .00012867 00000-0 48721-3 0 9996 2 40379 99.1160 217.7055 0123070 154.0584 206.6886 15.20223389387298 XW-2A 1 40903U 15049E 22034.81265160 .00012399 00000-0 23647-3 0 9994 2 40903 97.2051 93.5255 0009773 245.5520 179.5709 15.48249293358551 XW-2C 1 40906U 15049H 22034.80682081 .00003491 00000-0 17662-3 0 9994 2 40906 97.4922 39.4531 0016113 102.6113 336.3826 15.17584812352648 XW-2D 1 40907U 15049J 22034.81108778 .00003917 00000-0 19536-3 0 9997 2 40907 97.4910 39.3482 0015465 98.5994 340.0956 15.18019941352686 LILACSAT-2 1 40908U 15049K 22034.84414677 .00001800 00000-0 99866-4 0 9993 2 40908 97.5137 36.8660 0017042 115.8896 3.8734 15.14932387352251 XW-2E 1 40909U 15049L 22034.77307427 .00005954 00000-0 27125-3 0 9992 2 40909 97.4670 43.6085 0014654 84.0843 88.5908 15.20954466353078 XW-2F 1 40910U 15049M 22034.84332558 .00005929 00000-0 27403-3 0 9996 2 40910 97.4742 42.7839 0015727 84.2692 36.5453 15.20446136352867 XW-2B 1 40911U 15049N 22034.83508166 .00003772 00000-0 18873-3 0 9991 2 40911 97.4898 40.0107 0015448 99.8739 21.6899 15.17925749352578 DCBB 1 40912U 15049P 22034.83832353 .00006925 00000-0 29501-3 0 9993 2 40912 97.4421 47.1515 0015449 56.4545 66.7923 15.23177546353397 TW-1A 1 40928U 15051D 22034.81214830 .00019638 00000-0 34434-3 0 9991 2 40928 97.0572 59.4950 0009716 148.3420 27.2869 15.50545451357477 IO-86 1 40931U 15052B 22030.77250243 .00000823 00000-0 25367-4 0 9997 2 40931 5.9970 71.1209 0013587 17.1532 128.4088 14.76725120342951 ATHENOXAT-1 1 41168U 15077C 22034.55326735 .00008618 00000-0 38143-3 0 9992 2 41168 14.9910 0.0861 0010054 162.4330 343.8493 15.17507080339913 ChubuSat-2 1 41338U 16012B 22034.74240807 .00001670 00000-0 12149-3 0 9996 2 41338 31.0021 154.8915 0013574 266.9065 93.0017 15.00839748327372 ChubuSat-3 1 41339U 16012C 22034.74425495 .00001394 00000-0 99996-4 0 9994 2 41339 31.0097 151.8907 0013359 275.6642 84.2471 15.00960326327376 Horyu-4 1 41340U 16012D 22034.67112391 .00002953 00000-0 21093-3 0 9990 2 41340 31.0047 132.8693 0013639 310.4402 49.5044 15.02408831327580 e-st@r-II 1 41459U 16025D 22034.85270589 .00005077 00000-0 23853-3 0 9995 2 41459 98.1668 190.6070 0154606 2.3892 357.8032 15.10089008317317 AAUSAT4 1 41460U 16025E 22034.68108339 .00008903 00000-0 38758-3 0 9992 2 41460 98.1651 195.5925 0138952 342.5425 17.1048 15.14117163317660 LO-87 1 41557U 16033B 22034.89606337 .00008305 00000-0 27614-3 0 9997 2 41557 97.3896 132.7656 0013273 128.7415 8.3996 15.31345831316920 NuSat2 1 41558U 16033C 22034.89680784 .00007823 00000-0 24375-3 0 9991 2 41558 97.4052 137.7368 0012502 120.6557 334.2641 15.33465092317162 Lapan A3 1 41603U 16040E 22034.90994390 .00000981 00000-0 48173-4 0 9994 2 41603 97.2265 77.6444 0011476 271.0201 214.3710 15.20275676311746 Pratham 1 41783U 16059A 22034.40196929 .00000247 00000-0 56619-4 0 9999 2 41783 97.9341 81.1976 0032407 235.9466 123.8659 14.63227141286024 TY-1 1 41844U 16066D 22034.89467803 .00008090 00000-0 30572-3 0 9993 2 41844 97.3949 47.8091 0015572 46.5600 71.8531 15.27133283291208 CAS-2T 1 41847U 16066G 22034.44246680 .00000530 00000-0 90901-4 0 9999 2 41847 98.5706 99.1637 0363717 250.4985 105.6583 14.38343912275084 EO-88 1 42017U 17008BX 22034.63260146 .00012926 00000-0 44106-3 0 9997 2 42017 97.2881 103.0089 0005914 21.9123 338.2370 15.30447242276585 CAS-4B 1 42759U 17034B 22034.87952010 .00002704 00000-0 17294-3 0 9994 2 42759 43.0189 348.3122 0007224 177.9667 284.9893 15.10822907256141 CAS-4A 1 42761U 17034D 22034.92332947 .00002804 00000-0 17838-3 0 9999 2 42761 43.0193 346.9581 0007672 180.2261 283.3123 15.10911130256153 NIUSat 1 42766U 17036B 22034.74424548 .00006780 00000-0 28147-3 0 9997 2 42766 97.2214 77.4381 0016266 81.4785 278.8296 15.24028924256424 Aalto 1 1 42775U 17036L 22034.73978314 .00005585 00000-0 23452-3 0 9997 2 42775 97.2175 77.5272 0014906 80.7445 279.5478 15.23741424256408 URSA MAIOR 1 42776U 17036M 22034.76070517 .00005865 00000-0 24340-3 0 9997 2 42776 97.2188 78.1618 0014606 79.9108 280.3777 15.24122035256434 Max Valier Sat 1 42778U 17036P 22034.60286410 .00006473 00000-0 26284-3 0 9998 2 42778 97.2257 80.3754 0013152 82.2243 278.0488 15.24834867256493 Pegasus 1 42784U 17036V 22034.59298089 .00009589 00000-0 37467-3 0 9994 2 42784 97.2200 81.0055 0012691 83.8434 276.4251 15.26001243256582 NUDATSat 1 42787U 17036Y 22034.96989467 .00009137 00000-0 32768-3 0 9993 2 42787 97.2256 84.6756 0011435 69.4757 290.7711 15.28867557256676 SUCHAI 1 1 42788U 17036Z 22034.58185266 .00010697 00000-0 40356-3 0 9992 2 42788 97.2208 82.3309 0012104 80.3509 279.9098 15.27142736256732 SKCUBE 1 42789U 17036AA 22034.39800077 .00007018 00000-0 26926-3 0 9996 2 42789 97.2205 81.7372 0012103 81.7038 278.5573 15.26715153256601 VZLUSAT 1 1 42790U 17036AB 22034.90460545 .00014978 00000-0 53578-3 0 9993 2 42790 97.2235 84.5923 0011093 74.8288 285.4178 15.28829023256811 VENTA 1 1 42791U 17036AC 22034.59324474 .00008383 00000-0 32327-3 0 9991 2 42791 97.2202 81.8923 0011749 81.6619 278.5952 15.26490378256625 Robusta 1B 1 42792U 17036AD 22034.39072590 .00007332 00000-0 27840-3 0 9996 2 42792 97.2204 82.2107 0011652 81.8881 278.3679 15.27049522256641 D-SAT 1 42794U 17036AF 22034.44203336 .00001300 00000-0 11562-3 0 9991 2 42794 97.4540 46.9778 0124816 172.9923 187.3080 14.91963260251492 TechnoSat 1 42829U 17042E 22034.59302382 .00000795 00000-0 84472-4 0 9992 2 42829 97.4379 256.4210 0015688 94.4235 265.8777 14.91505536248130 QIKCOM-1 1 42983U 98067NF 22034.88881208 .00049345 00000-0 32511-3 0 9990 2 42983 51.6342 157.8437 0001963 142.1910 217.9228 15.75134554243764 AO-91 1 43017U 17073E 22034.64793198 .00003935 00000-0 30561-3 0 9999 2 43017 97.6903 294.2967 0250852 265.5811 91.6706 14.80308166227311 PICSAT 1 43132U 18004X 22034.17754050 .00007695 00000-0 28588-3 0 9997 2 43132 97.3867 111.5993 0009865 111.2799 248.9494 15.27785669225883 AO-92 1 43137U 18004AC 22034.63038429 .00008453 00000-0 32360-3 0 9994 2 43137 97.3836 111.1868 0009761 112.1442 248.0834 15.26758860225916 TianYi 2 1 43155U 18008A 22034.82924176 .00004632 00000-0 26178-3 0 9997 2 43155 97.3741 97.5788 0015270 246.4627 225.2538 15.13479741223052 Zhou Enlai 1 43156U 18008B 22034.81981704 .00004657 00000-0 26583-3 0 9994 2 43156 97.3788 97.4195 0012523 246.4183 225.4816 15.13147322222989 TianYi 6 1 43158U 18008D 22034.66810021 .00003833 00000-0 22400-3 0 9991 2 43158 97.3725 95.4927 0011779 248.1838 265.8550 15.12413571222873 S-Net D 1 43186U 18014G 22034.46650983 .00001064 00000-0 96512-4 0 9996 2 43186 97.6673 302.7519 0011505 33.0885 327.1054 14.97367698218865 S-Net B 1 43187U 18014H 22034.53335146 .00001352 00000-0 12128-3 0 9996 2 43187 97.6670 302.7751 0011501 32.8728 327.3207 14.97368916218877 S-Net A 1 43188U 18014J 22034.46674291 .00001073 00000-0 97257-4 0 9993 2 43188 97.6675 302.7655 0011497 33.1832 327.0109 14.97365989218864 S-Net C 1 43189U 18014K 22034.73459671 .00001390 00000-0 12448-3 0 9997 2 43189 97.6669 302.9628 0011478 32.3448 327.8475 14.97367558217455 FMN 1 1 43192U 18015A 22034.84151566 .00015946 00000-0 52464-3 0 9990 2 43192 97.5144 177.2770 0013527 141.1962 22.2216 15.31513463222951 Shaonian Xing 1 43199U 18015H 22034.87239667 .00010904 00000-0 37791-3 0 9994 2 43199 97.4920 173.4666 0015250 150.6814 0.5265 15.29898347222998 SurfSat 1 43614U 18070B 22034.88965204 .00023118 00000-0 46885-3 0 9996 2 43614 93.0202 42.5346 0013012 168.5661 191.5895 15.46218365190379 CP-7 DAVE 1 43615U 18070C 22034.76707249 .00022059 00000-0 45495-3 0 9996 2 43615 93.0204 42.3988 0013132 169.8224 190.3303 15.45729022190337 ELFIN-B 1 43616U 18070D 22034.84153345 .00037401 00000-0 63455-3 0 9991 2 43616 93.0154 43.0438 0012727 160.1696 200.0062 15.51283043190556 ELFIN-A 1 43617U 18070E 22034.89756942 .00037508 00000-0 61708-3 0 9996 2 43617 93.0197 44.1730 0012203 156.0323 204.1509 15.52153767190596 CubeBel-1 1 43666U 18083E 22034.86066917 .00006203 00000-0 28418-3 0 9996 2 43666 97.4358 65.2085 0015831 81.8085 24.1168 15.20728688181163 Changshagaoxin 1 43669U 18083H 22034.91323097 .00005365 00000-0 25626-3 0 9996 2 43669 97.4282 61.6385 0012054 79.2208 40.4409 15.19392505181013 Ten-Koh 1 43677U 18084G 22034.58439796 .00000952 00000-0 10272-3 0 9991 2 43677 97.9437 163.6388 0015806 357.8907 2.2241 14.90695451177732 PO-101 1 43678U 18084H 22034.85806780 .00000746 00000-0 79560-4 0 9990 2 43678 97.9486 166.7683 0010254 15.7234 344.4321 14.91902885177939 IRVINE 01 1 43693U 18088D 22034.73523833 .00024161 00000-0 84178-3 0 9990 2 43693 85.0310 40.8348 0012157 243.4568 116.5433 15.29460846179734 QO-100 1 43700U 18090A 22034.89131802 .00000133 00000-0 00000-0 0 9992 2 43700 0.0132 95.6910 0002226 253.8422 131.1258 1.00272936 11698 Reaktor Hello World 1 43743U 18096AA 22034.45230224 .00007534 00000-0 25587-3 0 9997 2 43743 97.3655 115.1770 0016517 171.8673 188.2839 15.30646615177442 MinXSS-2 1 43758U 18099A 22034.62416570 .00001984 00000-0 17919-3 0 9998 2 43758 97.6420 105.7518 0015306 0.6398 359.4841 14.96534441173089 AO-95 1 43770U 18099N 22034.88938241 .00001770 00000-0 16373-3 0 9990 2 43770 97.6390 104.6701 0014586 9.6650 350.4849 14.95733053173044 RANGE-B 1 43772U 18099Q 22034.66287046 .00002788 00000-0 25225-3 0 9994 2 43772 97.6480 105.8394 0013527 356.9657 3.1480 14.96154014173022 RANGE-A 1 43773U 18099R 22034.65061981 .00001319 00000-0 12399-3 0 9999 2 43773 97.6315 103.5060 0013178 357.6572 2.4585 14.95512732172998 MOVE-II 1 43780U 18099Y 22034.87581849 .00004330 00000-0 38464-3 0 9998 2 43780 97.6417 105.5074 0013123 7.1687 352.9720 14.96586681173079 SNUSat 2 1 43782U 18099AA 22034.41840600 .00001308 00000-0 12176-3 0 9997 2 43782 97.6393 104.6316 0012451 358.2099 1.9076 14.95938165172995 SnugLite 1 43784U 18099AC 22034.47234867 .00001972 00000-0 18015-3 0 9992 2 43784 97.6355 104.3524 0014798 4.4291 355.7059 14.96094939173022 ITASat 1 1 43786U 18099AE 22034.90029498 .00001188 00000-0 11084-3 0 9992 2 43786 97.6413 105.5183 0015075 1.8196 358.3078 14.95971437173089 EAGLET 1 1 43790U 18099AJ 22034.88355633 .00001637 00000-0 14976-3 0 9999 2 43790 97.6405 106.0008 0013417 7.1841 352.9570 14.96269880172811 ESEO 1 43792U 18099AL 22034.64429830 .00000419 00000-0 42427-4 0 9996 2 43792 97.6360 105.1513 0013263 3.9732 356.1592 14.95910660172825 CSIM 1 43793U 18099AM 22034.90859866 .00002878 00000-0 25313-3 0 9997 2 43793 97.6410 106.2889 0012554 356.5563 3.5570 14.97243289172895 Astrocast 0.1 1 43798U 18099AS 22034.45627538 .00002187 00000-0 19646-3 0 9996 2 43798 97.6405 105.8997 0011676 345.3033 14.7848 14.96670552173069 JO-97 1 43803U 18099AX 22034.88757669 .00002094 00000-0 18995-3 0 9992 2 43803 97.6376 105.2428 0014943 2.0638 358.0642 14.96307866173098 Suomi 100 1 43804U 18099AY 22034.63141654 .00001338 00000-0 12333-3 0 9997 2 43804 97.6372 104.9367 0015079 2.3285 357.8004 14.96252204173066 Al Farabi 2 1 43805U 18099AZ 22034.92565061 .00001963 00000-0 17711-3 0 9991 2 43805 97.6396 105.5833 0014987 0.8505 359.2764 14.96585718173128 CHOMPTT 1 43855U 18104G 22034.56939600 .00007660 00000-0 30149-3 0 9997 2 43855 85.0390 140.2416 0016878 20.2125 339.9783 15.25315372174303 ISAT 1 43879U 18111D 22034.69448487 .00003275 00000-0 28806-3 0 9998 2 43879 97.6760 302.7416 0014517 53.4394 306.8161 14.97131009169654 UWE-4 1 43880U 18111E 22034.38027372 .00001257 00000-0 11316-3 0 9998 2 43880 97.6782 303.0492 0013569 53.4319 306.8149 14.97335753169637 Sparrow 1 43881U 18111F 22034.67497867 .00002725 00000-0 23886-3 0 9997 2 43881 97.6780 303.5220 0013280 51.2535 308.9872 14.97416297169680 Lume 1 1 43908U 18111AJ 22034.60956075 .00008230 00000-0 30444-3 0 9996 2 43908 97.2099 286.7411 0019216 185.5325 174.5705 15.27764099172941 FO-98 1 43933U 19003B 22034.38236505 .00069561 00000-0 17212-2 0 9990 2 43933 97.1563 73.3451 0009326 287.0803 72.9422 15.40150810169452 FO-99 1 43937U 19003F 22034.85673731 .00010494 00000-0 38999-3 0 9999 2 43937 97.1488 73.5941 0020302 270.7120 89.1793 15.27518964169562 MYSat 1 1 44045U 18092F 22034.80338941 .00031382 00000-0 66683-3 0 9993 2 44045 51.6372 14.0658 0008592 336.7823 23.2775 15.44688770167159 AstroCast 0.2 1 44083U 19018F 22034.87355770 .00010141 00000-0 41733-3 0 9999 2 44083 97.3426 96.4136 0010976 235.4821 124.5381 15.24272375158128 AISTechSat 3 1 44103U 19018AB 22034.88245082 .00007328 00000-0 29301-3 0 9997 2 44103 97.3289 96.8617 0011296 244.7334 115.2734 15.25338834158273 AISat 1 1 44104U 19018AC 22034.66966965 .00006655 00000-0 20002-3 0 9995 2 44104 97.4058 117.4685 0053461 251.0651 108.4793 15.33321595159081 Prox-1 1 44339U 19036A 22034.89171549 .00002842 00000-0 60994-3 0 9994 2 44339 24.0010 316.0223 0011473 191.6051 168.4177 14.54159807138884 Oculus-ASR 1 44348U 19036K 22034.66575423 .00053329 00000-0 64338-3 0 9990 2 44348 28.5124 25.3220 0291954 265.9074 90.8105 15.22176991144043 Armadillo 1 44352U 19036P 22034.87170044 .00111817 -35867-5 10902-2 0 9997 2 44352 28.5284 338.3990 0235464 339.5667 19.5643 15.37197013144483 NO-104 1 44354U 19036R 22034.62802001 .00058306 00000-0 67790-3 0 9993 2 44354 28.5298 14.9799 0285386 280.0709 76.7807 15.24228907144142 NO-103 1 44355U 19036S 22034.93768815 .00195941 35005-5 12536-2 0 9994 2 44355 28.5211 274.3517 0162822 83.1714 278.7386 15.58792332145170 Move-IIb 1 44398U 19038N 22034.84231893 .00007346 00000-0 39014-3 0 9998 2 44398 97.6102 3.4555 0021660 228.2699 131.6684 15.15413944142788 SONATE 1 44400U 19038Q 22034.94455010 .00003051 00000-0 17414-3 0 9991 2 44400 97.6200 3.1420 0022837 231.2299 128.6893 15.13305484142736 BeeSat 9 1 44412U 19038AC 22034.69349454 .00006521 00000-0 35555-3 0 9991 2 44412 97.6204 3.3927 0019860 234.2255 125.7130 15.14560072142430 JAISAT-1 1 44419U 19038F 22034.72144394 .00007222 00000-0 38821-3 0 9996 2 44419 97.6208 4.1519 0018914 231.4740 128.4796 15.15041398142797 LightSail-2 1 44420U 19036AC 22034.70191763 .00046603 00000-0 83920-2 0 9991 2 44420 24.0043 278.5252 0019296 238.2613 121.6000 14.65090154137367 Taurus 1 1 44530U 19059C 22034.73457471 .00001421 00000-0 40707-3 0 9998 2 44530 98.5470 132.0667 0014827 160.6512 199.5253 14.46480148126518 Duchifat 3 1 44854U 19089C 22034.75649545 .00002558 00000-0 20761-3 0 9997 2 44854 36.9648 172.2950 0007814 224.6101 135.4087 15.00060384117841 OPS-SAT 1 44878U 19092F 22034.78385495 .00008695 00000-0 43261-3 0 9999 2 44878 97.4753 220.1300 0014669 85.7348 274.5562 15.17759282117903 TO-108 1 44881U 19093C 22034.72593513 .00000341 00000-0 50199-4 0 9999 2 44881 97.9056 115.8115 0013516 260.9820 98.9868 14.81555290114978 FloripaSat 1 1 44885U 19093G 22034.73710840 .00001131 00000-0 14702-3 0 9995 2 44885 97.9082 116.7970 0013186 268.1463 91.8243 14.82605522115038 RS-44 1 44909U 19096E 22034.49898808 .00000017 00000-0 32781-4 0 9999 2 44909 82.5244 319.2891 0216307 273.0103 84.6267 12.79712024 98376 Phoenix 1 45258U 98067RB 22034.82939491 .00056815 00000-0 53276-3 0 9991 2 45258 51.6341 244.6869 0002945 55.4902 304.6372 15.66627086111331 QARMAN 1 45263U 98067RG 22034.75267958 .02996717 11850-4 15227-2 0 9999 2 45263 51.6177 216.8607 0008102 289.5861 70.4282 16.19765432111751 Quetzal 1 1 45598U 98067RL 22034.81185580 .00372454 00000-0 12288-2 0 9996 2 45598 51.6302 229.4869 0004796 233.0763 126.9803 15.88913853100865 BY70-2 1 45857U 20042B 22034.79398002 .00003775 00000-0 52960-3 0 9993 2 45857 97.9666 113.0616 0011065 181.5743 178.5441 14.78015066 85702 UPMSat 2 1 46276U 20061E 22034.65627162 .00003167 00000-0 16319-3 0 9990 2 46276 97.4079 108.5441 0000247 39.1982 320.9270 15.17093116 78586 AmicalSat 1 46287U 20061R 22034.65827103 .00004056 00000-0 24476-3 0 9990 2 46287 97.4632 107.6394 0003496 45.9161 314.2356 15.11274475 78251 SALSAT 1 46495U 20068K 22034.78254786 .00002511 00000-0 18651-3 0 9995 2 46495 97.7173 336.2259 0017121 13.8972 346.2721 15.03837550 74098 BY70-3 1 46839U 20079N 22034.89909963 .00013238 00000-0 37242-3 0 9990 2 46839 97.2166 109.2138 0008267 94.6750 21.9903 15.36572141 69702 SPOC 1 46921U 98067RR 22034.89788156 .00055966 00000-0 58780-3 0 9997 2 46921 51.6366 255.7509 0002434 199.8687 160.2213 15.63783887 70946 Bobcat-1 1 46922U 98067RS 22034.19692002 .00096819 00000-0 69264-3 0 9996 2 46922 51.6373 251.0964 0003546 208.6891 151.3913 15.72940481 70909 Neutron-1 1 46923U 98067RT 22034.93188375 .00053995 00000-0 56955-3 0 9993 2 46923 51.6372 255.9831 0002281 207.5787 152.5087 15.63689582 70976 CAPE 3 1 47309U 21002A 22034.85340511 .00009368 00000-0 41148-3 0 9993 2 47309 60.6842 146.0612 0027098 177.3115 182.8122 15.22251817 58092 AO-109 1 47311U 21002C 22034.70198829 .00008402 00000-0 36269-3 0 9999 2 47311 60.6871 144.8059 0024398 168.3550 191.8107 15.23026159 58072 MiTEE 1 1 47314U 21002F 22034.67994958 .00016614 00000-0 65095-3 0 9998 2 47314 60.6852 141.1827 0026625 158.7430 201.4771 15.25650065 58157 ExoCube 2 1 47319U 21002L 22034.73012399 .00008266 00000-0 36102-3 0 9991 2 47319 60.6843 145.4656 0025151 174.3625 185.7751 15.22628720 58031 UVSQ-SAT 1 47438U 21006AB 22034.64738775 .00005328 00000-0 29601-3 0 9992 2 47438 97.4573 96.4410 0012974 25.9516 334.2364 15.14056392 57023 YUSAT 1 1 47439U 21006AC 22034.90619080 .00006404 00000-0 35361-3 0 9995 2 47439 97.4579 96.7230 0012793 25.4101 334.7757 15.14202890 57068 SOMP 2b 1 47445U 21006AJ 22034.88758246 .00004949 00000-0 27689-3 0 9993 2 47445 97.4546 96.4422 0012739 29.3521 330.8423 15.13845443 57050 IDEASSat 1 47458U 21006AX 22034.59103645 .00004804 00000-0 27007-3 0 9996 2 47458 97.4636 96.5230 0011806 28.8033 331.3848 15.13697768 57005 RSP-01 1 47925U 98067SB 22034.67757001 .00066083 00000-0 74992-3 0 9998 2 47925 51.6387 265.5286 0003146 173.4761 186.6274 15.61725798 50769 TAUSAT-1 1 47926U 98067SC 22034.66742252 .00106342 00000-0 10258-2 0 9997 2 47926 51.6375 262.4372 0004161 178.5073 181.5936 15.65652556 50796 Tsuru 1 47927U 98067SD 22034.69917602 .00056868 00000-0 68027-3 0 9999 2 47927 51.6377 266.4185 0003034 171.1850 188.9197 15.60417931 50752 STARS-EC 1 47928U 98067SE 22034.90752515 .00110783 00000-0 10208-2 0 9998 2 47928 51.6363 261.7893 0005147 227.1558 132.9006 15.66769099 50812 Maya-2 1 47929U 98067SF 22034.37475290 .00039037 00000-0 47119-3 0 9996 2 47929 51.6382 268.0001 0003070 167.1097 192.9976 15.60348451 50663 OPUSAT-II 1 47930U 98067SG 22034.79891484 .00104440 00000-0 92541-3 0 9991 2 47930 51.6359 261.0735 0003984 183.2104 176.8868 15.67767833 50834 GuaraniSat-1 1 47931U 98067SH 22034.75338903 .00055572 00000-0 66318-3 0 9994 2 47931 51.6389 266.0386 0003124 168.4102 191.6963 15.60489937 50766 CubeSX-Sirius-HSE 1 47951U 21022V 22034.94319666 .00002567 00000-0 17810-3 0 9998 2 47951 97.5434 297.2782 0020263 241.5169 118.4052 15.06321057 47897 CubeSX-HSE 1 47952U 21022W 22034.93492795 .00003113 00000-0 21481-3 0 9990 2 47952 97.5426 297.2815 0020284 241.0716 118.8518 15.06364385 47894 KSU-Cubesat 1 47954U 21022Y 22034.71591850 .00003825 00000-0 26202-3 0 9996 2 47954 97.5446 297.1266 0019517 240.2006 119.7281 15.06504272 47581 GRBAlpha 1 47959U 21022AD 22034.86815932 .00003194 00000-0 22022-3 0 9992 2 47959 97.5435 297.2418 0020147 241.6729 118.2492 15.06375309 46700 Orbicraft-Zorkiy 1 47960U 21022AE 22034.80245101 .00003565 00000-0 24472-3 0 9996 2 47960 97.5461 297.2618 0019786 241.0106 205.4367 15.06471716 47387 STECCO 1 47962U 21022AG 22034.89483346 .00003825 00000-0 25341-3 0 9997 2 47962 97.5416 297.7478 0014638 235.8078 186.6094 15.07816125 46731 DO-111 1 47963U 21022AH 22034.66432045 .00013553 00000-0 84858-3 0 9990 2 47963 97.5449 297.9340 0016934 231.3425 128.6289 15.09383495 46740 MO-110 1 47964U 21022AJ 22034.69249663 .00005505 00000-0 35930-3 0 9991 2 47964 97.5428 297.7145 0017878 232.4018 127.5588 15.08130864 46713 FEES 1 48082U 21022AL 22034.43907250 .00005125 00000-0 33656-3 0 9999 2 48082 97.5444 297.3301 0013941 229.1871 130.8149 15.07992372 46371 RamSat 1 48850U 98067SL 22034.50509967 .00037914 00000-0 54200-3 0 9995 2 48850 51.6392 273.3404 0003087 259.2101 100.8543 15.55847247 36394 MO-112 1 48868U 98067SP 22034.76879418 .00102375 00000-0 10357-2 0 9991 2 48868 51.6362 267.5923 0003194 216.8517 143.2259 15.64475727 35271 TUBIN 1 48900U 21059X 22034.87586814 .00002822 00000-0 16446-3 0 9994 2 48900 97.5338 165.5486 0009640 196.1206 262.5897 15.12774155 33718 IT-SPINS 1 49017U 21013G 22034.78983489 .00009214 00000-0 38785-3 0 9995 2 49017 51.5986 318.0634 0007079 310.2893 49.7465 15.24036215 33382 LEDSAT 1 49069U 21073D 22034.48822018 .00002806 00000-0 18687-3 0 9994 2 49069 97.5394 110.0542 0028590 35.6285 324.6844 15.07592094 25643 CUTE 1 49263U 21088D 22034.66817867 .00003797 00000-0 29302-3 0 9998 2 49263 97.6069 105.2639 0020520 159.4821 200.7232 15.01999495 19332 Binar-1 1 49272U 98067SR 22034.75308167 .00039015 00000-0 58970-3 0 9992 2 49272 51.6390 274.9812 0005743 172.8204 187.2870 15.54300291 18783 Maya-3 1 49273U 98067SS 22034.65652813 .00052307 00000-0 75748-3 0 9993 2 49273 51.6397 275.0866 0005821 170.7840 189.3259 15.55339588 18777 Maya-4 1 49274U 98067ST 22034.72505954 .00049438 00000-0 71863-3 0 9990 2 49274 51.6392 274.7946 0005817 170.0186 190.0922 15.55261260 18787 CUAVA-1 1 49275U 98067SU 22034.86393081 .00029293 00000-0 43395-3 0 9998 2 49275 51.6428 274.0941 0005833 175.3433 241.0606 15.54995801 18754 TeikyoSat 4 1 49396U 21102B 22034.71768382 .00001542 00000-0 12713-3 0 9999 2 49396 97.5549 96.8010 0018364 348.2679 11.8115 15.00350663 12994 Z-Sat 1 49399U 21102E 22034.75223083 .00000880 00000-0 71340-4 0 9996 2 49399 97.5590 97.1198 0020128 331.5900 28.4226 15.02083364 13011 KOSEN 1 1 49402U 21102H 22034.90098853 .00001786 00000-0 13666-3 0 9995 2 49402 97.5516 97.3040 0021051 317.4276 42.5317 15.02986890 13044 HO-113 1 50466U 21131B 22034.75888276 .00000027 00000-0 23398-4 0 9999 2 50466 98.5935 112.0195 0004795 172.3557 187.7700 14.38438461 5698 Grizu-263a 1 51025U 22002AT 22034.44865952 .00007332 00000-0 41454-3 0 9999 2 51025 97.5157 103.8330 0014427 161.3189 198.8575 15.13289560 3156 IRIS-A 1 51044U 22002BN 22034.46134668 .00002784 00000-0 16454-3 0 9993 2 51044 97.5003 103.7700 0010046 158.3867 201.7789 15.12268306 3154 DELFI-PQ 1 51074U 22002CU 22034.49708083 .00005677 00000-0 31072-3 0 9994 2 51074 97.5237 103.9452 0014320 192.5694 167.5183 15.14555130 3163 GASPACS 1 51439U 98067TB 22032.12147602 .00058112 00000-0 99171-3 0 9991 2 51439 51.6446 290.3932 0008615 94.3312 265.9243 15.50724425 905 /EX